Voltar ao catálogo

CZ-3B DEB

AtivoHEO
NORAD 42473·DEBRIS·🇨🇳 China

Lançado Dec 19, 2011 de Xichang Satellite Launch Center

Loading…

Próximas Passagens (próximas 24 horas)

TLE

AtualizadoSource: Space-Track

Época: Sep 14, 2026, 11:33 UTC

1 42473U 11077AN  26257.48139312 -.00000247  00000-0  00000-0 0  9993
2 42473  23.5498  46.5227 7203475 132.8936 315.9442  1.69257970 64609

Acompanhe CZ-3B DEB em tempo real com AllMySat

Download on the App Store